Location: Saratoga Springs
(43.0831°N, 73.7850°W)
Time: 11:16:07
(UTC-04:00)

SR - Pass Details

Date: 18 April 2024
Orbit: 579 x 859 km, 66.7° (Epoch: 27 May)

Event Time Altitude Azimuth Distance (km) Brightness Sun altitude
Exits shadow 04:14:31 25° 278° (W) 1,539 ? -19.2°
Maximum altitude 04:16:15 30° 311° (NW) 1,349 ? -19.0°
Drops below altitude 10° 04:20:48 10° 13° (NNE) 2,241 ? -18.3°
Sets 04:23:21 0° 24° (NNE) 3,115 ? -17.9°
